If you wish to contribute or participate in the discussions about articles you are invited to join SKYbrary as a registered user

 Actions

Francistown Airport

From SKYbrary Wiki

FBFT /
Revision as of 07:04, 1 July 2020 by Admin (talk | contribs) (Text replacement - "{{Show_Airportmaps}} " to "{{ShowAirportMap|TerrainZoom=10|AirportLayoutZoom=13}} ")
(diff) ← Older revision | Latest revision (diff) | Newer revision → (diff)
Airport
ICAO: FBFT – IATA: FRW
Summary
Name Francistown Airport
Region Africa
Territory Botswana BW.gif
Location Francistown, North east district
Serving Francistown
Elevation 1,000.658 m
3,283 ft
3,283 ft1,000.658 m
Coordinates 21° 9' 33.98" S, 27° 28' 27.98" E
Runways
Designator Length Width Surface ROPS
11/29 2200 m7,217.848 ft
30 m98.425 ft
ASP /
16/34 1264 m4,146.982 ft
22 m72.178 ft
GVL /


METAR
Observation FBFT 261500Z 11009KT 080V170 9999 SCT030 32/17 Q1013
Station Francistown
Date/Time 26 November 2020 15:00:00
Wind direction 110°
Wind speed 09 kts
Lowest cloud amount scattered clouds
Temperature 32°C
Dew point 17°C
Humidity 40%
QNH 1013 hPa
Weather condition n/a

Airport serving Francistown, Botswana.

Climatology

Hot, semi-arid/Steppe climate (Köppen climate classification BSh)

Maps

Terrain

Loading map...

Airport Layout

Loading map...


Accidents & Serious Incidents at or in vicinity of FBFT

None on SKYbrary